{"data":{"norad_id":58239,"epoch":"2026-05-25T04:48:49.483008Z","epoch_age_seconds":56958,"freshness":"FRESH","line1":"1 58239U 23171K   26145.20057272  .00009120  00000+0  34056-3 0  9996","line2":"2 58239  42.9993 213.3305 0001745 269.0147  91.0505 15.27576510141430","mean_motion":15.2757651,"eccentricity":0.0001745,"inclination_deg":42.9993,"raan_deg":213.3305,"arg_perigee_deg":269.0147,"mean_anomaly_deg":91.0505,"bstar":0.00034056,"rev_number":14143,"period_min":94.266964081557,"perigee_km":481.86226757773,"apogee_km":484.25682517241,"semimajor_km":6861.1965463751,"source":"CELESTRAK","updated_at":"2026-05-25T13:38:18.581034Z"}}